PA3DZX-13 Weather Reports


time (UTC)temp
F
wind
direction
speed
knots
gust
knots
rain 1hr
in
rain 24hr
in
rain mn
in
humidity
%
barometer
mb
20260509111136 59 127 3.5 7.0 0.00 0.00 0.00 54 1019.1
20260509105636 59 142 3.5 7.0 0.00 0.00 0.00 56 1019.3
20260509104136 59 109 1.7 9.6 0.00 0.00 0.00 63 1019.3
20260509102635 60 128 3.5 9.6 0.00 0.00 0.00 60 1019.3
20260509101135 60 83 1.7 7.0 0.00 0.00 0.00 63 1019.4
20260509095635 59 166 0.0 7.0 0.00 0.00 0.00 66 1019.4
20260509094134 55 83 3.5 7.0 0.00 0.00 0.00 69 1019.5
20260509092634 55 36 3.5 7.0 0.00 0.00 0.00 72 1019.5
20260509091134 55 39 3.5 7.0 0.00 0.00 0.00 73 1019.5
20260509085633 53 46 3.5 7.0 0.00 0.00 0.00 77 1019.6
20260509084133 53 28 5.2 7.0 0.00 0.00 0.00 77 1019.7
20260509082633 53 55 3.5 7.0 0.00 0.00 0.00 78 1019.7
20260509081132 53 37 3.5 7.0 0.00 0.00 0.00 78 1019.8
20260509075633 53 35 3.5 5.2 0.00 0.00 0.00 79 1019.8
20260509074132 51 71 1.7 5.2 0.00 0.00 0.00 79 1019.8
20260509072632 51 94 1.7 5.2 0.00 0.00 0.00 79 1019.9
20260509071131 51 66 1.7 5.2 0.00 0.00 0.00 81 1020.0
20260509065631 50 68 1.7 5.2 0.00 0.00 0.00 80 1020.0
20260509064131 50 66 3.5 7.0 0.00 0.00 0.00 84 1019.8
20260509062630 48 65 3.5 7.0 0.00 0.00 0.00 87 1019.8
20260509061129 48 58 5.2 7.0 0.00 0.00 0.00 89 1019.7
20260509055630 46 61 3.5 7.0 0.00 0.00 0.00 92 1019.6
20260509054129 46 54 3.5 5.2 0.00 0.00 0.00 96 1019.5
20260509052629 42 55 1.7 5.2 0.00 0.00 0.00 99 1019.5
20260509051128 41 57 3.5 5.2 0.00 0.00 0.00 99 1019.5
20260509045628 41 62 3.5 3.5 0.00 0.00 0.00 99 1019.4
20260509044127 39 53 1.7 3.5 0.00 0.00 0.00 99 1019.5
20260509042628 41 54 1.7 3.5 0.00 0.00 0.00 99 1019.5
20260509041127 39 51 3.5 3.5 0.00 0.00 0.00 99 1019.5
20260509035627 39 51 3.5 3.5 0.00 0.00 0.00 99 1019.6
20260509034127 35 40 1.7 3.5 0.00 0.00 0.00 98 1019.6
20260509032627 37 53 1.7 3.5 0.00 0.00 0.00 99 1019.8
20260509031127 37 43 3.5 3.5 0.00 0.00 0.00 99 1019.9
20260509025626 37 22 1.7 1.7 0.00 0.00 0.00 99 1019.9
20260509024125 37 22 1.7 3.5 0.00 0.00 0.00 99 1019.8
20260509022626 37 23 1.7 1.7 0.00 0.00 0.00 99 1019.7
20260509021125 37 26 1.7 3.5 0.00 0.00 0.00 98 1019.8
20260509015625 39 18 1.7 1.7 0.00 0.00 0.00 99 1020.0
20260509014125 39 49 0.0 1.7 0.00 0.00 0.00 99 1020.0
20260509012625 39 49 0.0 0.0 0.00 0.00 0.00 98 1020.0
20260509011125 39 49 0.0 0.0 0.00 0.00 0.00 96 1020.0
20260509005625 42 88 1.7 5.2 0.00 0.00 0.00 90 1020.0
20260509004124 44 83 1.7 5.2 0.00 0.00 0.00 89 1019.9
20260509002624 46 88 3.5 5.2 0.00 0.00 0.00 87 1019.8
20260509001123 46 84 3.5 7.0 0.00 0.00 0.00 87 1019.8
20260508235623 46 104 3.5 7.0 0.00 0.00 0.00 86 1019.8
20260508234123 46 104 3.5 5.2 0.00 0.00 0.00 86 1019.9
20260508232624 46 95 3.5 5.2 0.00 0.00 0.00 84 1020.1
20260508231123 48 85 3.5 5.2 0.00 0.00 0.00 82 1020.0
20260508225623 48 78 3.5 7.0 0.00 0.00 0.00 83 1019.9
20260508224122 48 91 3.5 7.0 0.00 0.00 0.00 81 1019.9
20260508222623 48 85 3.5 7.0 0.00 0.00 0.00 80 1020.0
20260508221121 48 91 3.5 7.0 0.00 0.00 0.00 80 1020.0
20260508215621 48 79 3.5 5.2 0.00 0.00 0.00 80 1020.0
20260508214121 48 85 3.5 5.2 0.00 0.00 0.00 79 1020.0
20260508212621 48 78 3.5 5.2 0.00 0.00 0.00 78 1019.9
20260508211121 50 81 3.5 5.2 0.00 0.00 0.00 76 1019.8
20260508205621 50 79 3.5 5.2 0.00 0.00 0.00 76 1019.9
20260508204120 50 83 3.5 5.2 0.00 0.00 0.00 75 1019.8
20260508202620 50 84 3.5 3.5 0.00 0.00 0.00 75 1019.7
20260508201120 48 82 3.5 3.5 0.00 0.00 0.00 77 1019.7
20260508195620 48 85 1.7 3.5 0.00 0.00 0.00 80 1019.6
20260508194120 50 80 1.7 3.5 0.00 0.00 0.00 74 1019.4
20260508192621 53 95 1.7 3.5 0.00 0.00 0.00 65 1019.2
20260508191120 53 97 1.7 5.2 0.00 0.00 0.00 65 1019.0
20260508185619 55 96 3.5 7.0 0.00 0.00 0.00 61 1018.9
20260508184118 57 96 3.5 7.0 0.00 0.00 0.00 59 1018.8
20260508182618 57 92 3.5 7.0 0.00 0.00 0.00 59 1018.8
20260508181118 57 85 5.2 9.6 0.00 0.00 0.00 53 1018.4
20260508175618 59 94 3.5 9.6 0.00 0.00 0.00 55 1018.4
20260508174118 59 110 5.2 9.6 0.00 0.00 0.00 53 1018.3
20260508172619 59 99 5.2 11.3 0.00 0.00 0.00 54 1018.1
20260508171117 59 116 5.2 11.3 0.00 0.00 0.00 52 1018.1
20260508165617 59 96 7.0 11.3 0.00 0.00 0.00 52 1018.2
20260508164117 59 92 5.2 9.6 0.00 0.00 0.00 52 1018.2
20260508162617 59 76 5.2 11.3 0.00 0.00 0.00 55 1018.4
20260508161116 59 58 7.0 11.3 0.00 0.00 0.00 54 1018.3
20260508155617 60 98 5.2 9.6 0.00 0.00 0.00 55 1018.2
20260508154116 60 110 5.2 9.6 0.00 0.00 0.00 51 1018.3
20260508152616 59 77 5.2 11.3 0.00 0.00 0.00 52 1018.4
20260508151115 60 73 5.2 11.3 0.00 0.00 0.00 50 1018.4
20260508145616 59 109 5.2 11.3 0.00 0.00 0.00 51 1018.5
20260508144115 59 76 5.2 9.6 0.00 0.00 0.00 55 1018.5
20260508142615 59 95 5.2 11.3 0.00 0.00 0.00 55 1018.6
20260508141115 62 86 3.5 9.6 0.00 0.00 0.00 52 1018.6
20260508135615 59 107 5.2 9.6 0.00 0.00 0.00 52 1018.6
20260508134113 59 87 5.2 9.6 0.00 0.00 0.00 55 1018.6
20260508132614 59 94 5.2 11.3 0.00 0.00 0.00 55 1018.6
20260508131113 59 82 7.0 11.3 0.00 0.00 0.00 54 1018.8
20260508125613 60 120 5.2 11.3 0.00 0.00 0.00 55 1018.8
20260508124112 59 113 5.2 11.3 0.00 0.00 0.00 56 1018.8
20260508122612 59 89 5.2 11.3 0.00 0.00 0.00 55 1018.8
20260508121111 59 100 5.2 11.3 0.00 0.00 0.00 57 1019.0
20260508115612 59 107 5.2 11.3 0.00 0.00 0.00 55 1018.9
20260508114111 60 58 5.2 9.6 0.00 0.00 0.00 57 1018.9
20260508112612 57 98 5.2 11.3 0.00 0.00 0.00 58 1019.2